Location: downtown San Diego
(32.7310°N, 117.1990°W)
Time: 22:05:34
(UTC-07:00)

ERS-1 Rocket - Pass Details

Date: 14 June 2018
Orbit: 754 x 757 km, 98.6° (Epoch: 18 June)

Event Time Altitude Azimuth Distance (km) Brightness Sun altitude
Exits shadow 22:26:55 45° 213° (SSW) 1,019 3.4 -24.5°
Maximum altitude 22:28:04 56° 259° (W) 894 3.4 -24.6°
Drops below altitude 10° 22:33:01 10° 338° (NNW) 2,286 6.5 -25.2°
Sets 22:35:22 0° 342° (NNW) 3,215 7.4 -25.5°
